Regional Weather Roundup
Issued by NWS Northern Indiana

Home | Current Version | Previous Version | Text Only | Print | Product List | Glossary Off
Versions: 1 2 3 4 5 6 7 8 9 10 11 12 13 14 15 16 17 18 19 20 21 22 23 24 25 26 27 28 29 30 31 32 33 34 35 36 37 38 39 40 41 42 43 44 45 46 47 48 49 50

000
ASUS43 KIWX 202110
RWRIWX

KIWX WEATHER ROUNDUP
NATIONAL WEATHER SERVICE NORTHERN INDIANA
500 PM EDT MON OCT 20 2014

NOTE: "FAIR" INDICATES FEW OR NO CLOUDS BELOW 12,000 FEET WITH NO
SIGNIFICANT WEATHER AND/OR OBSTRUCTIONS TO VISIBILITY.

* THESE STATIONS ARE NOT UNDER NWS QUALITY CONTROL. THEY ALSO MAY NOT
  REPORT WEATHER SUCH AS PRECIPITATION OR FOG.

INZ001>027-202200-
NORTHERN INDIANA

CITY           SKY/WX    TMP DP  RH WIND       PRES   REMARKS
GARY*          PTSUNNY   57  48  72 N10       29.87R
VALPARAISO     PTSUNNY   59  47  64 N8        29.86R
MICHIGAN CITY* CLOUDY    54  46  76 N9        29.87R
LAPORTE*       MOSUNNY   58  50  74 N13G20    29.87R
KNOX*          SUNNY     62  47  58 NW9G20    29.85R
SOUTH BEND     CLOUDY    56  48  74 NW12G23   29.87R
ELKHART*       CLOUDY    57  46  67 NW15      29.85R
GOSHEN         PTSUNNY   61  50  67 NW13      29.82R
MONTICELLO*    MOSUNNY   66  49  53 NW13      29.83R
LOGANSPORT*    PTSUNNY   64  45  48 W7        29.83S
ROCHESTER*     MOSUNNY   64  48  55 NW10      29.83R
WARSAW*        PTSUNNY   63  48  59 NW13      29.82R
ANGOLA*        PTSUNNY   57  48  72 NW7       29.82R
FORT WAYNE     PTSUNNY   61  51  70 SW7       29.83R
HUNTINGTON*    PTSUNNY   60  51  72 W5        29.81S
PERU/GRISSOM   MOSUNNY   65  51  60 NW14      29.82R
MARION*        PTSUNNY   64  47  54 NW9G16    29.83R HAZE

$$
INZ028>050-202200-
CENTRAL INDIANA

CITY           SKY/WX    TMP DP  RH WIND       PRES   REMARKS
LAFAYETTE      MOSUNNY   66  48  52 NW13      29.84R
KOKOMO*        PTSUNNY   64  48  55 NW10      29.83R
MUNCIE*        PTSUNNY   64  49  57 W12       29.82S
INDIANAPOLIS   MOSUNNY   66  44  45 W16       29.84S

$$
MIZ043>046-050>051-056>058-064>065-071>073-077>080-202200-
SOUTHWEST LOWER MICHIGAN

CITY           SKY/WX    TMP DP  RH WIND       PRES   REMARKS
BATTLE CREEK   MOSUNNY   59  48  67 W10       29.81S
BENTON HARBOR  CLOUDY    53  48  83 VRB7      29.86R
COLDWATER*     CLOUDY    57  51  79 W8        29.82R
HILLSDALE*     CLOUDY    53  52  96 W3        29.82R
HOLLAND        CLOUDY    57  49  74 NW9       29.84R
GRAND RAPIDS   CLOUDY    59  47  64 NW15      29.81R
KALAMAZOO      PTSUNNY   59  48  67 W12       29.82R
STURGIS*       MOSUNNY   57  50  77 NW5       29.82R
THREE RIVERS*  CLOUDY    59  49  71 NW8       29.83R

$$
OHZ001>008-015>018-024>025-202200-
NORTHWEST OHIO

CITY           SKY/WX    TMP DP  RH WIND       PRES   REMARKS
WAUSEON*       CLOUDY    55  52  88 SW7       29.81F
DEFIANCE       CLOUDY    55  51  86 SW8       29.82S
FINDLAY        CLOUDY    54  51  90 SW9       29.82S
TOLEDO EXPRESS CLOUDY    53  50  89 CALM      29.82S
TOLEDO METCALF CLOUDY    54  49  83 W8        29.83S
LIMA           CLOUDY    55  52  89 SW8       29.84R

$$
AND FOR LAKE MICHIGAN COASTAL AND OPEN LAKE BUOY OBSERVATIONS

STATION/POSITION TEMP    WIND        PRES    VSBY  WAVE
                 AIR SEA DIR/SP/G                  HT/PER
                 (F)     (DEG/KT/KT) (MB)    (MI)  (FT/S)
CALUMET HARBOR    55     350/  7/ 11 1010.5R
MICHIGAN CITY     53     350/ 12/ 13   N/A
SAINT JOSEPH      54                 1012.2S
SOUTH LAKE BUOY   53 55  340/ 17/ 21 1011.6R         3/ 4
MICHIGAN CITY CG     55                N/A    3 1/2  2

$$
&&


USA.gov is the U.S. government's official web portal to all federal, state and local government web resources and services.